Tracking 19280 objects as of 14-Nov-2018
HD Live streaming from Space Station
objects crossing your sky now

NAVSTAR 69 (USA 248)

Track NAVSTAR 69 (USA 248) now!
NAVSTAR 69 (USA 248) is classified as:


NORAD ID: 39533
Int'l Code: 2014-008A
Perigee: 20,093.0 km
Apogee: 20,285.6 km
Inclination: 54.0 °
Period: 718.0 minutes
Semi major axis: 26560 km
RCS: Unknown
Launch date: February 21, 2014
Source: United States (US)
Launch site: AIR FORCE EASTERN TEST RANGE (AFETR)
PRN: 30

USA 248, known also as GPS 2F-5 will become a primary broadcasting satellite in the constellation when it becomes operational by May 2014.
aabbcc
Your satellite tracking list
Your tracking list is empty




NASA's NSSDC Master Catalog

Two Line Element Set (TLE):
1 39533U 14008A   18316.58682535 -.00000021  00000-0  00000+0 0  9990
2 39533  54.0107 262.7454 0036263 192.8646 167.0427  2.00564332 34614
Source of the keplerian elements: AFSPC